EJU45PN EBBR-LFMN

Flight info

Callsign EJU45PN
Flight time N/A
Altitude 37000
Route CIV N872 LESDO DCT KOVIN DCT DUCRA UM728 KETEX DCT KOTIS DCT KUKOR DCT UTUVA DCT LERGA DCT LIQID DCT LATAM DCT TUNUR DCT NISAR
Aircraft A320/M-SDE2E3FGHIRWXY/LB1

Departure

Time N/A
Airport Brussels Airport (EBBR)

Arrival

Time 2026-05-05 17:43
Airport Nice-Côte d'Azur Airport (LFMN)
Time Latitude Longitude Altitude Speed Heading
2026-05-05 17:41 43.61934 7.15943 954 ft 144 kts 46°
2026-05-05 17:42 43.62638 7.16909 768 ft 143 kts 46°
2026-05-05 17:42 43.63343 7.17880 570 ft 144 kts 47°
2026-05-05 17:42 43.64056 7.18853 388 ft 143 kts 45°
2026-05-05 17:42 43.64765 7.19803 200 ft 143 kts 46°
2026-05-05 17:43 43.65458 7.20790 29 ft 140 kts 46°
2026-05-05 17:43 43.66057 7.21609 20 ft 98 kts 44°
2026-05-05 17:43 43.66320 7.21951 23 ft 22 kts 23°
2026-05-05 17:43 43.66471 7.22040 21 ft 25 kts 20°
2026-05-05 17:44 43.66546 7.22033 21 ft 9 kts 314°
2026-05-05 17:44 43.66546 7.21962 22 ft 7 kts 242°
2026-05-05 17:44 43.66513 7.21915 21 ft 6 kts 224°
2026-05-05 17:44 43.66482 7.21872 21 ft 9 kts 224°
2026-05-05 17:45 43.66414 7.21782 24 ft 18 kts 224°
2026-05-05 17:45 43.66323 7.21643 21 ft 16 kts 254°
2026-05-05 17:45 43.66370 7.21511 21 ft 15 kts 276°
2026-05-05 17:45 43.66305 7.21372 22 ft 20 kts 224°
2026-05-05 17:46 43.66198 7.21229 21 ft 23 kts 224°
2026-05-05 17:46 43.66087 7.21077 21 ft 16 kts 225°
2026-05-05 17:46 43.66015 7.20974 22 ft 14 kts 226°
2026-05-05 17:46 43.65965 7.20876 21 ft 12 kts 269°
2026-05-05 17:47 43.66002 7.20818 24 ft 1 kts 344°
2026-05-05 17:47 43.66015 7.20814 21 ft 4 kts 348°
2026-05-05 17:47 43.66070 7.20802 21 ft 11 kts 351°
2026-05-05 17:47 43.66088 7.20764 21 ft 6 kts 272°
2026-05-05 17:48 43.66080 7.20703 21 ft 0 kts 261°
2026-05-05 17:48 43.66080 7.20701 21 ft 0 kts 260°